Theta_e
302 302 302 302 302 301 300 301 302 303 302 302 301 301 300 298 299 299 299 300 299 298
302 302 303 303 301 302 301 303 304 303 301 300 298 298 298 299 299 298 299 302 298 298
302 303 304 302 302 301 301 301 302 302 300 299 298 297 296 297 299 298 299 300 298 298
302 304 304 303 302 301 301 302 302 303 301 299 297 296 296 297 299 299 298 299 298 299
303 303 303 302 302 302 301 302 303 303 301 300 297 295 296 298 299 299 299 299 298 303
303 303 302 302 301 302 302 302 302 302 301 299 297 295 296 298 300 300 300 298 298 300
302 302 302 302 301 302 303 302 302 302 301 300 297 296 296 297 301 304 299 298 298 299
302 302 302 302 302 303 303 303 303 303 302 303 300 298 298 298 298 303 299 297 297 299
303 303 303 302 302 302 303 302 302 302 302 304 303 302 303 302 298 303 298 297 295 296
303 304 303 303 302 303 303 301 301 301 301 304 301 301 301 303 297 296 302 300 294 295
304 304 303 303 305 306 305 301 300 301 301 302 300 302 299 300 295 299 301 302 299 294
305 307 305 302 304 307 305 303 300 301 300 299 298 301 299 297 294 294 301 303 302 301
308 308 304 305 306 305 306 304 304 302 299 301 297 299 298 297 293 292 296 299 300 302
307 305 305 302 306 305 304 303 302 298 298 297 297 295 297 297 294 292 292 293 297 299
Wind_Speed
5 2 1 2 2 2 2 4 4 5 4 5 6 6 5 3 4 5 4 5 4 3
4 3 2 2 2 3 3 4 5 4 4 4 6 6 6 3 5 4 4 5 4 3
4 3 3 1 3 4 4 3 5 5 4 5 6 6 6 4 4 5 4 3 5 4
4 3 2 3 3 3 4 4 5 4 4 4 6 6 6 5 5 6 5 5 5 6
5 3 3 3 3 3 4 4 4 4 4 4 5 6 6 6 6 5 5 6 6 6
6 5 4 3 3 3 4 3 4 3 3 4 5 6 6 6 6 6 5 5 5 6
7 6 5 4 4 3 3 3 4 4 4 3 5 5 6 6 6 5 5 5 5 5
6 5 4 4 4 4 4 4 4 5 5 4 4 4 6 6 6 5 6 6 6 5
5 4 4 4 4 4 4 4 4 5 5 5 3 7 11 9 5 5 4 5 6 6
5 4 4 4 4 4 4 3 5 6 5 5 4 6 9 10 5 5 4 4 5 6
5 6 5 4 4 3 3 4 4 4 4 4 5 5 7 8 6 5 4 3 4 4
5 5 4 4 5 4 2 3 3 3 5 4 5 6 7 5 5 6 5 4 4 4
5 5 5 5 4 3 3 3 3 4 4 3 3 6 7 5 2 4 4 5 5 6
5 6 5 3 2 2 1 2 2 3 3 2 3 4 6 7 3 2 3 4 4 4
Wind_Direction
143 180 216 261 285 289 283 289 291 290 309 339 347 337 334 331 315 340 335 322 319 295
164 171 215 248 274 285 294 290 307 327 332 341 350 344 339 323 336 344 318 322 318 301
186 188 216 239 270 282 292 310 314 335 335 343 344 344 342 335 319 340 327 312 327 326
193 207 211 225 262 294 305 308 316 309 318 342 345 348 340 333 332 338 332 336 331 317
198 207 212 215 261 274 286 307 297 302 320 346 350 344 343 329 330 331 344 337 341 326
206 211 217 238 259 277 283 307 311 302 317 337 342 344 336 322 322 319 357 353 342 334
208 211 210 239 249 273 277 289 293 281 281 304 327 339 339 334 325 337 356 351 346 341
204 210 221 247 263 275 268 269 278 282 271 283 324 342 335 337 323 341 344 356 346 338
192 208 229 252 274 280 258 278 279 281 277 298 308 327 342 348 339 341 348 342 340 338
203 211 230 239 253 266 266 266 277 281 291 287 287 333 344 351 351 339 312 349 344 338
204 219 218 230 257 239 240 257 268 282 281 267 270 300 351 356 347 326 336 330 339 341
214 235 200 232 233 244 233 255 259 262 283 272 320 348 351 356 349 341 344 349 320 335
200 208 194 220 216 225 224 256 289 304 285 285 306 354 356 5 347 338 334 332 333 334
174 175 187 211 237 242 293 263 317 310 305 342 19 6 13 3 359 319 324 325 325 324